Simultaneous Nadir Overpasses (SNOs) Predictions

Prediction of SNOs between GOES-16 and METOP-B Satellite Orbit:

Table of predicted SNOs for the next 14.0 days since TLE Epoch: 11/16/2024
Index Date Time (GOES-16) GOES-16 Lat,Lon METOP-B Lat,Lon Distance(km) Time Diff (sec)
1 11/16/2024 14:22:50 -0.04, -75.20 0.20, -76.24 118.32 80
2 11/17/2024 13:59:24 -0.03, -75.20 -0.88, -71.22 452.46 80
3 11/19/2024 02:20:57 0.02, -75.17 -0.11, -75.81 71.95 80
4 11/20/2024 02:00:11 0.02, -75.18 0.98, -70.79 499.31 80
5 11/21/2024 14:18:55 -0.01, -75.22 0.02, -75.34 14.08 80
6 11/24/2024 02:14:20 0.01, -75.21 0.05, -74.90 35.35 80
7 11/25/2024 14:35:44 -0.01, -75.26 0.93, -79.45 476.85 80
8 11/26/2024 14:12:18 -0.01, -75.28 -0.17, -74.43 95.83 80
9 11/28/2024 02:33:50 0.00, -75.28 -0.84, -79.01 425.76 80
10 11/29/2024 02:10:24 0.00, -75.29 0.28, -74.00 147.13 80
